Location: Newark
(42.7133°N, 87.7910°W)
Time: 11:39:39
(UTC+00:00)

Tiros 1 - Pass Details

Date: 21 September 2019
Orbit: 630 x 664 km, 48.4° (Epoch: 13 October)

Event Time Altitude Azimuth Distance (km) Brightness Sun altitude
Rises 17:42:33 0° 218° (SW) 2,969 11.0 47.9°
Reaches altitude 10° 17:45:00 10° 210° (SSW) 2,056 10.5 47.9°
Maximum altitude 17:49:24 39° 142° (SE) 971 9.3 47.9°
Drops below altitude 10° 17:53:48 10° 74° (ENE) 2,044 9.7 47.8°
Sets 17:56:13 0° 67° (ENE) 2,951 10.3 47.8°
